K8MUD Weather Reports


Display with metric or nautical units.
time (UTC)temp
F
wind
direction
speed
MPH
gust
MPH
rain 1hr
in
rain 24hr
in
rain mn
in
humidity
%
barometer
mb
20260906221502 76 84 3.0 6.0 0.00 0.00 0.00 60 1018.3
20260906221053 76 89 3.0 7.0 0.00 0.00 0.00 61 1018.3
20260906221002 76 89 3.0 7.0 0.00 0.00 0.00 61 1018.3
20260906220553 76 83 3.0 8.0 0.00 0.00 0.00 59 1018.3
20260906220501 76 83 3.0 8.0 0.00 0.00 0.00 59 1018.3
20260906220053 77 78 3.0 8.0 0.00 0.00 0.00 60 1018.3
20260906220001 77 78 3.0 8.0 0.00 0.00 0.00 60 1018.3
20260906215553 77 79 2.0 8.0 0.00 0.00 0.00 59 1018.2
20260906215502 77 79 2.0 8.0 0.00 0.00 0.00 59 1018.2
20260906215053 77 81 2.0 8.0 0.00 0.00 0.00 60 1018.3
20260906215004 77 81 2.0 8.0 0.00 0.00 0.00 60 1018.3
20260906214553 77 83 3.0 8.0 0.00 0.00 0.00 59 1018.4
20260906214501 77 83 3.0 8.0 0.00 0.00 0.00 59 1018.4
20260906214053 77 83 3.0 8.0 0.00 0.00 0.00 59 1018.3
20260906214002 77 83 3.0 8.0 0.00 0.00 0.00 59 1018.3
20260906213553 77 81 3.0 8.0 0.00 0.00 0.00 59 1018.4
20260906213502 77 81 3.0 8.0 0.00 0.00 0.00 59 1018.4
20260906213053 77 79 3.0 8.0 0.00 0.00 0.00 59 1018.4
20260906213001 77 79 3.0 8.0 0.00 0.00 0.00 59 1018.4
20260906212553 77 77 3.0 11.0 0.00 0.00 0.00 58 1018.4
20260906212501 77 77 3.0 11.0 0.00 0.00 0.00 58 1018.4
20260906212053 77 77 3.0 11.0 0.00 0.00 0.00 59 1018.4
20260906212023 77 77 3.0 11.0 0.00 0.00 0.00 59 1018.4
20260906211553 77 75 3.0 9.0 0.00 0.00 0.00 58 1018.3
20260906211522 77 75 3.0 9.0 0.00 0.00 0.00 58 1018.3
20260906211053 77 75 3.0 7.0 0.00 0.00 0.00 57 1018.4
20260906211002 77 75 3.0 7.0 0.00 0.00 0.00 57 1018.4
20260906210552 78 77 3.0 8.0 0.00 0.00 0.00 58 1018.3
20260906210523 78 77 3.0 8.0 0.00 0.00 0.00 58 1018.3
20260906210052 77 82 3.0 8.0 0.00 0.00 0.00 58 1018.4
20260906210001 77 82 3.0 8.0 0.00 0.00 0.00 58 1018.4
20260906205552 77 87 3.0 8.0 0.00 0.00 0.00 56 1018.4
20260906205501 77 87 4.0 8.0 0.00 0.00 0.00 56 1018.4
20260906205052 77 85 4.0 8.0 0.00 0.00 0.00 59 1018.5
20260906205002 77 86 4.0 9.0 0.00 0.00 0.00 59 1018.5
20260906204552 77 85 4.0 9.0 0.00 0.00 0.00 57 1018.4
20260906204501 77 85 4.0 9.0 0.00 0.00 0.00 57 1018.4
20260906204052 78 87 4.0 9.0 0.00 0.00 0.00 56 1018.5
20260906204004 78 87 4.0 9.0 0.00 0.00 0.00 56 1018.5
20260906203552 78 88 3.0 7.0 0.00 0.00 0.00 56 1018.3
20260906203501 78 88 3.0 7.0 0.00 0.00 0.00 56 1018.3
20260906203052 78 86 3.0 8.0 0.00 0.00 0.00 58 1018.2
20260906203002 78 86 3.0 8.0 0.00 0.00 0.00 58 1018.2
20260906202552 78 85 4.0 8.0 0.00 0.00 0.00 56 1018.3
20260906202523 78 85 4.0 8.0 0.00 0.00 0.00 56 1018.3
20260906202052 78 78 3.0 6.0 0.00 0.00 0.00 57 1018.2
20260906202001 78 78 2.0 6.0 0.00 0.00 0.00 57 1018.2
20260906201552 78 76 3.0 7.0 0.00 0.00 0.00 56 1018.2
20260906201502 78 76 3.0 7.0 0.00 0.00 0.00 56 1018.2
20260906201052 78 79 3.0 9.0 0.00 0.00 0.00 56 1018.2
20260906201005 78 79 3.0 9.0 0.00 0.00 0.00 56 1018.2
20260906200552 78 82 3.0 9.0 0.00 0.00 0.00 55 1018.3
20260906200501 78 82 3.0 9.0 0.00 0.00 0.00 55 1018.3
20260906200052 78 84 4.0 10.0 0.00 0.00 0.00 54 1018.3
20260906200001 78 84 4.0 10.0 0.00 0.00 0.00 54 1018.3
20260906195551 78 86 4.0 10.0 0.00 0.00 0.00 53 1018.3
20260906195502 78 86 4.0 10.0 0.00 0.00 0.00 53 1018.4
20260906195051 78 86 3.0 8.0 0.00 0.00 0.00 55 1018.4
20260906195001 78 86 3.0 8.0 0.00 0.00 0.00 55 1018.4
20260906194551 78 82 4.0 9.0 0.00 0.00 0.00 54 1018.4
20260906194501 78 82 4.0 9.0 0.00 0.00 0.00 54 1018.4
20260906194051 79 87 4.0 9.0 0.00 0.00 0.00 53 1018.5
20260906194001 79 87 4.0 9.0 0.00 0.00 0.00 53 1018.5
20260906193551 79 89 3.0 8.0 0.00 0.00 0.00 53 1018.4
20260906193523 79 89 3.0 8.0 0.00 0.00 0.00 52 1018.4
20260906193051 79 85 3.0 8.0 0.00 0.00 0.00 55 1018.4
20260906193001 79 85 3.0 8.0 0.00 0.00 0.00 55 1018.4
20260906192551 79 87 3.0 8.0 0.00 0.00 0.00 54 1018.5
20260906192501 79 87 3.0 8.0 0.00 0.00 0.00 54 1018.5
20260906192051 79 84 3.0 8.0 0.00 0.00 0.00 56 1018.5
20260906192002 79 84 3.0 8.0 0.00 0.00 0.00 55 1018.5
20260906191551 79 84 3.0 7.0 0.00 0.00 0.00 56 1018.5
20260906191501 79 84 3.0 7.0 0.00 0.00 0.00 56 1018.5
20260906191051 78 87 4.0 8.0 0.00 0.00 0.00 56 1018.5
20260906191002 78 87 4.0 8.0 0.00 0.00 0.00 56 1018.5
20260906190551 78 90 4.0 10.0 0.00 0.00 0.00 56 1018.5
20260906190502 78 90 4.0 10.0 0.00 0.00 0.00 56 1018.5
20260906190051 79 91 4.0 10.0 0.00 0.00 0.00 55 1018.6
20260906190023 79 91 4.0 10.0 0.00 0.00 0.00 56 1018.6
20260906185551 79 87 4.0 8.0 0.00 0.00 0.00 56 1018.6
20260906185525 79 87 4.0 8.0 0.00 0.00 0.00 56 1018.6
20260906185051 79 83 3.0 10.0 0.00 0.00 0.00 57 1018.7
20260906185002 79 83 3.0 10.0 0.00 0.00 0.00 57 1018.7
20260906184551 79 84 4.0 10.0 0.00 0.00 0.00 56 1018.6
20260906184502 79 84 4.0 10.0 0.00 0.00 0.00 56 1018.6
20260906184050 79 82 4.0 8.0 0.00 0.00 0.00 57 1018.7
20260906184002 79 82 4.0 8.0 0.00 0.00 0.00 57 1018.7
20260906183550 79 85 4.0 10.0 0.00 0.00 0.00 56 1018.6
20260906183522 79 85 4.0 10.0 0.00 0.00 0.00 56 1018.6
20260906183050 79 88 4.0 10.0 0.00 0.00 0.00 56 1018.7
20260906183002 79 88 4.0 10.0 0.00 0.00 0.00 56 1018.7
20260906182550 80 85 3.0 8.0 0.00 0.00 0.00 55 1018.9
20260906182502 80 85 3.0 8.0 0.00 0.00 0.00 55 1018.9
20260906182050 80 80 3.0 9.0 0.00 0.00 0.00 53 1018.9
20260906182001 80 80 3.0 9.0 0.00 0.00 0.00 53 1018.9
20260906181550 80 86 3.0 9.0 0.00 0.00 0.00 55 1018.8
20260906181502 80 85 3.0 9.0 0.00 0.00 0.00 55 1018.8
20260906181050 80 95 2.0 7.0 0.00 0.00 0.00 56 1018.8
20260906181002 80 95 2.0 7.0 0.00 0.00 0.00 56 1018.8
20260906180550 80 90 3.0 7.0 0.00 0.00 0.00 58 1019.0
20260906180501 80 90 3.0 7.0 0.00 0.00 0.00 58 1019.0
20260906180050 80 82 3.0 9.0 0.00 0.00 0.00 57 1019.0
20260906180002 80 82 3.0 9.0 0.00 0.00 0.00 57 1019.0
20260906175550 79 78 3.0 9.0 0.00 0.00 0.00 58 1019.0
20260906175502 79 78 3.0 9.0 0.00 0.00 0.00 58 1019.0
20260906175050 79 85 3.0 9.0 0.00 0.00 0.00 60 1019.1
20260906175005 79 85 3.0 9.0 0.00 0.00 0.00 60 1019.1
20260906174550 79 78 3.0 9.0 0.00 0.00 0.00 58 1019.3
20260906174522 79 78 3.0 9.0 0.00 0.00 0.00 58 1019.3
20260906174050 79 77 3.0 8.0 0.00 0.00 0.00 60 1019.2
20260906174002 79 77 3.0 8.0 0.00 0.00 0.00 60 1019.2
20260906173550 79 87 3.0 8.0 0.00 0.00 0.00 58 1019.3
20260906173502 79 87 3.0 8.0 0.00 0.00 0.00 58 1019.3
20260906173049 79 89 3.0 7.0 0.00 0.00 0.00 59 1019.3
20260906173001 79 89 3.0 7.0 0.00 0.00 0.00 59 1019.3
20260906172549 79 82 3.0 7.0 0.00 0.00 0.00 59 1019.3
20260906172502 79 83 3.0 8.0 0.00 0.00 0.00 59 1019.3
20260906172049 78 77 3.0 11.0 0.00 0.00 0.00 61 1019.2
20260906172002 78 77 3.0 11.0 0.00 0.00 0.00 61 1019.2
20260906171549 78 80 3.0 11.0 0.00 0.00 0.00 63 1019.3
20260906171502 78 80 3.0 11.0 0.00 0.00 0.00 63 1019.3
20260906171049 78 80 3.0 8.0 0.00 0.00 0.00 62 1019.4
20260906171002 78 80 3.0 8.0 0.00 0.00 0.00 62 1019.4
20260906170549 78 86 3.0 8.0 0.00 0.00 0.00 62 1019.4
20260906170523 78 86 3.0 8.0 0.00 0.00 0.00 62 1019.4
20260906170049 77 94 3.0 8.0 0.00 0.00 0.00 63 1019.4
20260906170022 77 94 3.0 8.0 0.00 0.00 0.00 63 1019.4
20260906165549 77 90 3.0 7.0 0.00 0.00 0.00 64 1019.7
20260906165502 77 90 3.0 7.0 0.00 0.00 0.00 64 1019.7
20260906165049 77 83 4.0 10.0 0.00 0.00 0.00 66 1019.6
20260906165023 77 83 4.0 10.0 0.00 0.00 0.00 66 1019.6
20260906164549 78 82 3.0 10.0 0.00 0.00 0.00 65 1019.5
20260906164505 78 82 3.0 10.0 0.00 0.00 0.00 65 1019.5
20260906164049 78 90 3.0 9.0 0.00 0.00 0.00 65 1019.5
20260906164001 78 90 3.0 9.0 0.00 0.00 0.00 65 1019.5
20260906163549 77 90 3.0 9.0 0.00 0.00 0.00 64 1019.5
20260906163502 77 90 3.0 9.0 0.00 0.00 0.00 64 1019.5
20260906163049 77 85 3.0 10.0 0.00 0.00 0.00 67 1019.4
20260906163001 77 85 3.0 10.0 0.00 0.00 0.00 67 1019.4
20260906162549 76 85 3.0 10.0 0.00 0.00 0.00 69 1019.5
20260906162522 76 85 3.0 10.0 0.00 0.00 0.00 69 1019.5
20260906162048 76 75 3.0 9.0 0.00 0.00 0.00 67 1019.5
20260906162002 76 75 3.0 9.0 0.00 0.00 0.00 67 1019.5
20260906161548 76 68 2.0 7.0 0.00 0.00 0.00 69 1019.5
20260906161502 76 68 2.0 7.0 0.00 0.00 0.00 69 1019.5
20260906161048 76 73 3.0 8.0 0.00 0.00 0.00 69 1019.5
20260906161001 76 73 3.0 8.0 0.00 0.00 0.00 69 1019.5
20260906160548 75 72 3.0 9.0 0.00 0.00 0.00 68 1019.6
20260906160502 75 72 3.0 9.0 0.00 0.00 0.00 68 1019.6
20260906160048 75 71 3.0 9.0 0.00 0.00 0.00 71 1019.6
20260906160005 75 71 3.0 9.0 0.00 0.00 0.00 71 1019.6
20260906155548 74 82 2.0 8.0 0.00 0.00 0.00 71 1019.4
20260906155502 74 82 2.0 8.0 0.00 0.00 0.00 71 1019.4
20260906155048 74 86 2.0 8.0 0.00 0.00 0.00 72 1019.5
20260906155002 74 86 2.0 8.0 0.00 0.00 0.00 72 1019.4
20260906154548 74 73 2.0 7.0 0.00 0.00 0.00 72 1019.4
20260906154502 74 72 2.0 7.0 0.00 0.00 0.00 72 1019.4
20260906154048 74 72 2.0 7.0 0.00 0.00 0.00 73 1019.4
20260906154002 74 72 2.0 7.0 0.00 0.00 0.00 73 1019.4
20260906153548 74 77 2.0 7.0 0.00 0.00 0.00 73 1019.4
20260906153502 74 78 2.0 7.0 0.00 0.00 0.00 73 1019.4
20260906153048 74 76 2.0 7.0 0.00 0.00 0.00 74 1019.4
20260906153005 74 76 2.0 7.0 0.00 0.00 0.00 74 1019.4
20260906152548 73 81 2.0 7.0 0.00 0.00 0.00 75 1019.3
20260906152502 73 81 2.0 7.0 0.00 0.00 0.00 75 1019.3
20260906152048 73 87 2.0 7.0 0.00 0.00 0.00 75 1019.3
20260906152002 73 87 2.0 7.0 0.00 0.00 0.00 76 1019.3
20260906151548 73 89 2.0 7.0 0.00 0.00 0.00 74 1019.3
20260906151502 73 88 2.0 7.0 0.00 0.00 0.00 74 1019.3
20260906151048 73 82 2.0 7.0 0.00 0.00 0.00 76 1019.1
20260906151001 73 82 2.0 7.0 0.00 0.00 0.00 76 1019.1
20260906150547 73 77 2.0 9.0 0.00 0.00 0.00 76 1019.1
20260906150502 73 77 2.0 9.0 0.00 0.00 0.00 76 1019.1
20260906150047 73 80 2.0 9.0 0.00 0.00 0.00 76 1019.1
20260906150002 73 80 2.0 9.0 0.00 0.00 0.00 76 1019.1
20260906145547 73 68 2.0 6.0 0.00 0.00 0.00 76 1019.2
20260906145502 73 66 2.0 6.0 0.00 0.00 0.00 76 1019.2
20260906145047 72 67 2.0 6.0 0.00 0.00 0.00 77 1019.1
20260906145002 72 67 2.0 6.0 0.00 0.00 0.00 77 1019.1
20260906144547 72 75 2.0 6.0 0.00 0.00 0.00 77 1019.1
20260906144502 72 76 2.0 6.0 0.00 0.00 0.00 77 1019.1
20260906144047 72 47 1.0 4.0 0.00 0.00 0.00 76 1019.1
20260906144002 72 45 1.0 4.0 0.00 0.00 0.00 76 1019.1
20260906143547 72 4 1.0 5.0 0.00 0.00 0.00 79 1019.1
20260906143505 72 5 1.0 5.0 0.00 0.00 0.00 79 1019.1
20260906143047 72 24 1.0 5.0 0.00 0.00 0.00 78 1019.1
20260906143002 72 24 1.0 5.0 0.00 0.00 0.00 78 1019.1
20260906142547 72 54 1.0 7.0 0.00 0.00 0.00 79 1018.9
20260906142502 72 55 1.0 7.0 0.00 0.00 0.00 79 1018.9
20260906142047 72 50 1.0 7.0 0.00 0.00 0.00 79 1018.9
20260906142002 72 50 1.0 7.0 0.00 0.00 0.00 79 1018.9
20260906141547 71 34 1.0 5.0 0.00 0.00 0.00 80 1018.9
20260906141523 71 34 1.0 5.0 0.00 0.00 0.00 80 1018.9
20260906141047 71 39 1.0 5.0 0.00 0.00 0.00 79 1018.7
20260906141002 71 39 1.0 5.0 0.00 0.00 0.00 79 1018.7
20260906140547 71 70 1.0 7.0 0.00 0.00 0.00 81 1018.9
20260906140502 71 71 1.0 7.0 0.00 0.00 0.00 81 1018.9
20260906140047 71 75 1.0 7.0 0.00 0.00 0.00 81 1018.8
20260906140002 71 74 1.0 7.0 0.00 0.00 0.00 81 1018.8
20260906135547 70 30 1.0 5.0 0.00 0.00 0.00 83 1018.8
20260906135523 70 28 1.0 5.0 0.00 0.00 0.00 83 1018.8
20260906135046 70 49 1.0 5.0 0.00 0.00 0.00 84 1018.8
20260906135003 70 51 1.0 5.0 0.00 0.00 0.00 84 1018.8
20260906134546 69 68 0.0 4.0 0.00 0.00 0.00 84 1018.8
20260906134502 69 68 0.0 4.0 0.00 0.00 0.00 84 1018.8
20260906134046 69 30 0.0 2.0 0.00 0.00 0.00 85 1018.7
20260906134002 69 27 0.0 2.0 0.00 0.00 0.00 85 1018.7
20260906133546 68 10 0.0 3.0 0.00 0.00 0.00 85 1018.7
20260906133503 68 10 0.0 3.0 0.00 0.00 0.00 85 1018.7
20260906133046 68 5 1.0 3.0 0.00 0.00 0.00 87 1018.7
20260906133002 68 6 1.0 3.0 0.00 0.00 0.00 87 1018.7
20260906132546 67 18 1.0 4.0 0.00 0.00 0.00 87 1018.7
20260906132502 67 18 1.0 4.0 0.00 0.00 0.00 87 1018.7
20260906132046 67 5 1.0 5.0 0.00 0.00 0.00 88 1018.7
20260906132027 67 5 1.0 5.0 0.00 0.00 0.00 88 1018.7
20260906131546 67 326 1.0 5.0 0.00 0.00 0.00 89 1018.7
20260906131503 67 326 1.0 5.0 0.00 0.00 0.00 89 1018.7
20260906131046 66 333 1.0 4.0 0.00 0.00 0.00 90 1018.7
20260906131023 66 334 1.0 4.0 0.00 0.00 0.00 90 1018.7
20260906130546 66 351 1.0 4.0 0.00 0.00 0.00 90 1018.7
20260906130502 66 351 1.0 4.0 0.00 0.00 0.00 90 1018.7
20260906130046 66 337 1.0 4.0 0.00 0.00 0.00 91 1018.6
20260906130003 66 337 1.0 4.0 0.00 0.00 0.00 91 1018.6
20260906125546 65 328 0.0 4.0 0.00 0.00 0.00 92 1018.6
20260906125502 65 328 0.0 4.0 0.00 0.00 0.00 92 1018.6
20260906125045 65 350 0.0 3.0 0.00 0.00 0.00 92 1018.6
20260906125005 65 350 0.0 3.0 0.00 0.00 0.00 92 1018.6
20260906124545 64 345 0.0 3.0 0.00 0.00 0.00 93 1018.5
20260906124502 64 345 0.0 3.0 0.00 0.00 0.00 93 1018.5
20260906124045 64 340 1.0 5.0 0.00 0.00 0.00 94 1018.6
20260906124002 64 340 1.0 5.0 0.00 0.00 0.00 94 1018.6
20260906123545 63 336 1.0 5.0 0.00 0.00 0.00 94 1018.5
20260906123502 63 336 1.0 5.0 0.00 0.00 0.00 94 1018.5
20260906123045 63 334 1.0 4.0 0.00 0.00 0.00 94 1018.5
20260906123002 63 334 1.0 4.0 0.00 0.00 0.00 94 1018.5
20260906122545 62 334 1.0 4.0 0.00 0.00 0.00 95 1018.4
20260906122503 62 334 1.0 4.0 0.00 0.00 0.00 95 1018.4
20260906122045 62 334 1.0 4.0 0.00 0.00 0.00 95 1018.4
20260906122002 62 334 1.0 4.0 0.00 0.00 0.00 95 1018.4
20260906121545 61 334 1.0 3.0 0.00 0.00 0.00 95 1018.3
20260906121502 61 334 1.0 3.0 0.00 0.00 0.00 95 1018.3
20260906121045 61 334 0.0 2.0 0.00 0.00 0.00 94 1018.4
20260906121003 61 334 0.0 2.0 0.00 0.00 0.00 94 1018.4
20260906120545 60 334 0.0 2.0 0.00 0.00 0.00 94 1018.3
20260906120503 60 334 0.0 2.0 0.00 0.00 0.00 94 1018.3
20260906120045 60 0 0.0 0.0 0.00 0.00 0.00 93 1018.3
20260906120002 60 0 0.0 0.0 0.00 0.00 0.00 93 1018.3
20260906115545 60 0 0.0 0.0 0.00 0.00 0.00 93 1018.2
20260906115502 60 0 0.0 0.0 0.00 0.00 0.00 93 1018.2
20260906115045 60 0 0.0 0.0 0.00 0.00 0.00 93 1018.1
20260906115024 60 0 0.0 0.0 0.00 0.00 0.00 93 1018.1
20260906114545 60 0 0.0 0.0 0.00 0.00 0.00 93 1018.1
20260906114502 60 0 0.0 0.0 0.00 0.00 0.00 93 1018.0
20260906114044 60 0 0.0 0.0 0.00 0.00 0.00 93 1018.0
20260906114023 60 0 0.0 0.0 0.00 0.00 0.00 93 1018.0
20260906113544 60 0 0.0 0.0 0.00 0.00 0.00 93 1017.8
20260906113502 60 0 0.0 0.0 0.00 0.00 0.00 93 1017.8
20260906113044 60 0 0.0 0.0 0.00 0.00 0.00 93 1017.7
20260906113002 60 0 0.0 0.0 0.00 0.00 0.00 93 1017.7
20260906112544 60 334 0.0 2.0 0.00 0.00 0.00 93 1017.7
20260906112502 60 334 0.0 2.0 0.00 0.00 0.00 93 1017.7
20260906112044 60 334 0.0 2.0 0.00 0.00 0.00 93 1017.7
20260906112002 60 334 0.0 2.0 0.00 0.00 0.00 93 1017.7
20260906111544 60 334 1.0 3.0 0.00 0.00 0.00 93 1017.6
20260906111505 60 334 1.0 3.0 0.00 0.00 0.00 93 1017.6
20260906111044 60 334 1.0 4.0 0.00 0.00 0.00 93 1017.6
20260906111003 60 334 1.0 4.0 0.00 0.00 0.00 93 1017.6
20260906110544 60 334 0.0 4.0 0.00 0.00 0.00 93 1017.6
20260906110502 60 334 0.0 4.0 0.00 0.00 0.00 93 1017.6
20260906110044 60 0 0.0 0.0 0.00 0.00 0.00 93 1017.6
20260906110005 60 0 0.0 0.0 0.00 0.00 0.00 93 1017.6
20260906105544 60 0 0.0 0.0 0.00 0.00 0.00 93 1017.5
20260906105502 60 0 0.0 0.0 0.00 0.00 0.00 93 1017.5
20260906105044 60 0 0.0 0.0 0.00 0.00 0.00 92 1017.4
20260906105002 60 0 0.0 0.0 0.00 0.00 0.00 92 1017.4
20260906104544 60 0 0.0 0.0 0.00 0.00 0.00 92 1017.4
20260906104502 60 0 0.0 0.0 0.00 0.00 0.00 92 1017.4
20260906104044 60 0 0.0 0.0 0.00 0.00 0.00 92 1017.4
20260906104003 60 0 0.0 0.0 0.00 0.00 0.00 92 1017.4
20260906103544 60 0 0.0 0.0 0.00 0.00 0.00 92 1017.5
20260906103526 60 0 0.0 0.0 0.00 0.00 0.00 92 1017.5
20260906103044 60 0 0.0 0.0 0.00 0.00 0.00 92 1017.4
20260906103002 60 0 0.0 0.0 0.00 0.00 0.00 92 1017.4
20260906102544 60 0 0.0 0.0 0.00 0.00 0.00 92 1017.4
20260906102502 60 0 0.0 0.0 0.00 0.00 0.00 92 1017.4
20260906102043 60 0 0.0 0.0 0.00 0.00 0.00 92 1017.4
20260906102024 60 0 0.0 0.0 0.00 0.00 0.00 92 1017.4
20260906101543 60 0 0.0 0.0 0.00 0.00 0.00 92 1017.4
20260906101502 60 0 0.0 0.0 0.00 0.00 0.00 92 1017.4
20260906101043 60 335 0.0 1.0 0.00 0.00 0.00 92 1017.3
20260906101005 60 335 0.0 1.0 0.00 0.00 0.00 92 1017.3
20260906100543 60 335 0.0 1.0 0.00 0.00 0.00 92 1017.3
20260906100502 60 335 0.0 1.0 0.00 0.00 0.00 92 1017.3
20260906100043 60 334 1.0 4.0 0.00 0.00 0.00 92 1017.4
20260906100003 60 334 1.0 4.0 0.00 0.00 0.00 92 1017.4
20260906095543 60 334 1.0 4.0 0.00 0.00 0.00 92 1017.4
20260906095502 60 334 1.0 4.0 0.00 0.00 0.00 92 1017.4
20260906095043 60 334 2.0 3.0 0.00 0.00 0.00 92 1017.4
20260906095026 60 334 2.0 3.0 0.00 0.00 0.00 92 1017.4
20260906094543 60 335 2.0 4.0 0.00 0.00 0.00 92 1017.4
20260906094506 60 335 2.0 4.0 0.00 0.00 0.00 92 1017.4
20260906094043 60 336 2.0 4.0 0.00 0.00 0.00 92 1017.4
20260906094002 60 336 2.0 4.0 0.00 0.00 0.00 92 1017.4
20260906093543 60 336 1.0 4.0 0.00 0.00 0.00 92 1017.4
20260906093523 60 336 1.0 4.0 0.00 0.00 0.00 92 1017.4
20260906093043 60 336 1.0 4.0 0.00 0.00 0.00 92 1017.3
20260906093003 60 336 1.0 4.0 0.00 0.00 0.00 92 1017.3
20260906092543 60 336 1.0 4.0 0.00 0.00 0.00 92 1017.2
20260906092503 60 336 1.0 4.0 0.00 0.00 0.00 92 1017.2
20260906092043 60 336 2.0 4.0 0.00 0.00 0.00 92 1017.3
20260906092006 60 336 2.0 4.0 0.00 0.00 0.00 92 1017.3
20260906091543 60 337 2.0 4.0 0.00 0.00 0.00 91 1017.3
20260906091502 60 337 2.0 4.0 0.00 0.00 0.00 91 1017.3
20260906091043 60 337 1.0 3.0 0.00 0.00 0.00 91 1017.3
20260906091003 60 337 1.0 3.0 0.00 0.00 0.00 91 1017.3
20260906090543 61 337 1.0 3.0 0.00 0.00 0.00 91 1017.2
20260906090503 61 337 1.0 3.0 0.00 0.00 0.00 91 1017.2
20260906090042 61 337 1.0 3.0 0.00 0.00 0.00 91 1017.1
20260906090002 61 337 1.0 3.0 0.00 0.00 0.00 91 1017.1
20260906085542 61 337 1.0 3.0 0.00 0.00 0.00 91 1017.1
20260906085503 61 337 1.0 3.0 0.00 0.00 0.00 91 1017.1
20260906085042 61 337 1.0 3.0 0.00 0.00 0.00 91 1017.0
20260906085003 61 337 1.0 3.0 0.00 0.00 0.00 91 1017.0
20260906084542 61 337 2.0 5.0 0.00 0.00 0.00 91 1016.9
20260906084502 61 337 2.0 5.0 0.00 0.00 0.00 91 1016.9
20260906084042 61 338 1.0 5.0 0.00 0.00 0.00 91 1017.0
20260906084002 61 338 1.0 5.0 0.00 0.00 0.00 91 1017.0
20260906083542 61 0 0.0 0.0 0.00 0.00 0.00 91 1017.0
20260906083503 61 0 0.0 0.0 0.00 0.00 0.00 91 1017.0
20260906083042 61 338 0.0 3.0 0.00 0.00 0.00 91 1017.0
20260906083002 61 338 0.0 3.0 0.00 0.00 0.00 91 1017.0
20260906082542 61 338 1.0 3.0 0.00 0.00 0.00 91 1017.0
20260906082502 61 338 1.0 3.0 0.00 0.00 0.00 91 1017.0
20260906082042 61 338 1.0 3.0 0.00 0.00 0.00 91 1017.0
20260906082003 61 338 1.0 3.0 0.00 0.00 0.00 91 1017.0
20260906081542 61 338 1.0 3.0 0.00 0.00 0.00 91 1017.0
20260906081503 61 338 1.0 3.0 0.00 0.00 0.00 91 1017.0
20260906081042 61 339 1.0 4.0 0.00 0.00 0.00 91 1017.0
20260906081002 61 339 1.0 4.0 0.00 0.00 0.00 91 1017.0
20260906080542 61 340 1.0 4.0 0.00 0.00 0.00 90 1017.0
20260906080502 61 340 1.0 4.0 0.00 0.00 0.00 90 1017.0
20260906080042 61 340 1.0 3.0 0.00 0.00 0.00 90 1016.9
20260906080003 61 340 1.0 3.0 0.00 0.00 0.00 90 1016.9
20260906075542 61 340 1.0 3.0 0.00 0.00 0.00 90 1016.8
20260906075503 61 340 1.0 3.0 0.00 0.00 0.00 90 1016.8
20260906075041 61 340 1.0 4.0 0.00 0.00 0.00 90 1016.8
20260906075003 61 340 1.0 4.0 0.00 0.00 0.00 90 1016.8
20260906074541 61 340 1.0 4.0 0.00 0.00 0.00 90 1016.7
20260906074502 61 340 1.0 4.0 0.00 0.00 0.00 90 1016.7
20260906074041 61 340 1.0 3.0 0.00 0.00 0.00 90 1016.7
20260906074003 61 340 1.0 3.0 0.00 0.00 0.00 90 1016.7
20260906073541 61 341 1.0 4.0 0.00 0.00 0.00 90 1016.7
20260906073503 61 341 1.0 4.0 0.00 0.00 0.00 90 1016.7
20260906073041 61 342 1.0 4.0 0.00 0.00 0.00 90 1016.7
20260906073005 61 342 1.0 4.0 0.00 0.00 0.00 90 1016.7
20260906072541 61 342 1.0 4.0 0.00 0.00 0.00 90 1016.6
20260906072503 61 342 1.0 4.0 0.00 0.00 0.00 90 1016.6
20260906072041 61 342 1.0 3.0 0.00 0.00 0.00 90 1016.5
20260906072006 61 342 1.0 3.0 0.00 0.00 0.00 90 1016.5
20260906071541 61 345 1.0 4.0 0.00 0.00 0.00 90 1016.5
20260906071503 61 345 1.0 4.0 0.00 0.00 0.00 90 1016.5
20260906071041 61 347 1.0 4.0 0.00 0.00 0.00 90 1016.4
20260906071003 61 347 1.0 4.0 0.00 0.00 0.00 90 1016.4
20260906070541 61 344 1.0 4.0 0.00 0.00 0.00 90 1016.4
20260906070502 61 344 1.0 4.0 0.00 0.00 0.00 90 1016.4
20260906070041 61 337 0.0 2.0 0.00 0.00 0.00 89 1016.3
20260906070003 61 337 0.0 2.0 0.00 0.00 0.00 89 1016.3
20260906065541 61 337 0.0 4.0 0.00 0.00 0.00 89 1016.4
20260906065503 61 337 0.0 4.0 0.00 0.00 0.00 89 1016.4
20260906065041 61 337 1.0 4.0 0.00 0.00 0.00 89 1016.3
20260906065023 61 337 1.0 4.0 0.00 0.00 0.00 89 1016.3
20260906064541 61 337 1.0 4.0 0.00 0.00 0.00 89 1016.4
20260906064506 61 337 1.0 3.0 0.00 0.00 0.00 89 1016.4
20260906064041 61 337 1.0 4.0 0.00 0.00 0.00 89 1016.5
20260906064003 61 337 1.0 4.0 0.00 0.00 0.00 89 1016.5
20260906063541 61 337 1.0 4.0 0.00 0.00 0.00 89 1016.4
20260906063503 61 337 1.0 4.0 0.00 0.00 0.00 89 1016.4
20260906063041 61 338 1.0 3.0 0.00 0.00 0.00 89 1016.5
20260906063002 61 338 1.0 3.0 0.00 0.00 0.00 89 1016.5
20260906062540 62 334 1.0 6.0 0.00 0.00 0.00 88 1016.5
20260906062524 62 334 1.0 6.0 0.00 0.00 0.00 88 1016.5
20260906062040 62 329 0.0 6.0 0.00 0.00 0.00 88 1016.5
20260906062024 62 329 0.0 6.0 0.00 0.00 0.00 88 1016.5
20260906061540 62 321 0.0 4.0 0.00 0.00 0.00 88 1016.4
20260906061506 62 321 0.0 4.0 0.00 0.00 0.00 88 1016.4
20260906061040 62 322 0.0 4.0 0.00 0.00 0.00 88 1016.5
20260906061024 62 322 0.0 4.0 0.00 0.00 0.00 88 1016.5
20260906060540 62 325 1.0 4.0 0.00 0.00 0.00 88 1016.4
20260906060503 62 325 1.0 4.0 0.00 0.00 0.00 88 1016.4
20260906060040 62 326 0.0 4.0 0.00 0.00 0.00 88 1016.5
20260906060002 62 326 0.0 4.0 0.00 0.00 0.00 88 1016.5
20260906055540 62 343 1.0 4.0 0.00 0.00 0.00 87 1016.5
20260906055503 62 343 1.0 4.0 0.00 0.00 0.00 87 1016.5
20260906055040 62 336 1.0 4.0 0.00 0.00 0.00 87 1016.4
20260906055003 62 336 1.0 4.0 0.00 0.00 0.00 87 1016.4
20260906054540 62 319 1.0 4.0 0.00 0.00 0.00 87 1016.4
20260906054503 62 319 1.0 4.0 0.00 0.00 0.00 87 1016.4
20260906054040 62 319 1.0 4.0 0.00 0.00 0.00 87 1016.4
20260906054003 62 319 1.0 4.0 0.00 0.00 0.00 87 1016.4
20260906053540 62 319 2.0 5.0 0.00 0.00 0.00 86 1016.6
20260906053503 62 319 2.0 5.0 0.00 0.00 0.00 86 1016.6
20260906053040 62 320 2.0 5.0 0.00 0.00 0.00 86 1016.7
20260906053006 62 320 2.0 5.0 0.00 0.00 0.00 86 1016.7
20260906052540 62 322 2.0 4.0 0.00 0.00 0.00 86 1016.7
20260906052503 62 322 2.0 4.0 0.00 0.00 0.00 86 1016.7
20260906052040 62 323 2.0 5.0 0.00 0.00 0.00 86 1016.7
20260906052003 62 323 2.0 5.0 0.00 0.00 0.00 86 1016.7
20260906051540 62 314 3.0 5.0 0.00 0.00 0.00 86 1016.7
20260906051503 62 314 3.0 5.0 0.00 0.00 0.00 86 1016.7
20260906051039 62 307 3.0 5.0 0.00 0.00 0.00 85 1016.6
20260906051003 62 307 3.0 5.0 0.00 0.00 0.00 85 1016.6
20260906050539 62 307 2.0 5.0 0.00 0.00 0.00 85 1016.6
20260906050503 62 307 2.0 5.0 0.00 0.00 0.00 85 1016.6
20260906050039 62 307 2.0 4.0 0.00 0.00 0.00 85 1016.5
20260906050003 62 307 2.0 4.0 0.00 0.00 0.00 85 1016.5
20260906045539 62 308 2.0 5.0 0.00 0.00 0.00 85 1016.5
20260906045503 62 308 2.0 5.0 0.00 0.00 0.00 85 1016.5
20260906045039 63 309 3.0 5.0 0.00 0.00 0.00 85 1016.5
20260906045003 63 309 3.0 5.0 0.00 0.00 0.00 85 1016.5
20260906044539 63 310 2.0 4.0 0.00 0.00 0.00 84 1016.4
20260906044503 63 310 2.0 4.0 0.00 0.00 0.00 84 1016.4
20260906044039 63 313 1.0 3.0 0.00 0.00 0.00 84 1016.4
20260906044003 63 313 1.0 3.0 0.00 0.00 0.00 84 1016.4
20260906043539 63 313 1.0 4.0 0.00 0.00 0.00 84 1016.3
20260906043503 63 313 1.0 4.0 0.00 0.00 0.00 84 1016.3
20260906043039 63 313 1.0 4.0 0.00 0.00 0.00 84 1016.4
20260906043003 63 313 1.0 4.0 0.00 0.00 0.00 84 1016.4
20260906042539 63 321 1.0 5.0 0.00 0.00 0.00 83 1016.3
20260906042503 63 322 1.0 5.0 0.00 0.00 0.00 83 1016.3
20260906042039 63 323 2.0 5.0 0.00 0.00 0.00 83 1016.4
20260906042027 63 323 2.0 5.0 0.00 0.00 0.00 83 1016.4
20260906041539 63 319 1.0 5.0 0.00 0.00 0.00 83 1016.4
20260906041503 63 319 1.0 5.0 0.00 0.00 0.00 83 1016.4
20260906041039 63 316 1.0 4.0 0.00 0.00 0.00 83 1016.4
20260906041006 63 316 1.0 4.0 0.00 0.00 0.00 83 1016.4
20260906040539 63 315 2.0 5.0 0.00 0.00 0.00 82 1016.4
20260906040503 63 315 2.0 5.0 0.00 0.00 0.00 82 1016.4
20260906040039 64 320 2.0 5.0 0.00 0.00 0.00 82 1016.3
20260906040003 64 320 2.0 5.0 0.00 0.00 0.00 82 1016.3
20260906035539 64 315 2.0 5.0 0.00 0.00 0.00 82 1016.4
20260906035503 64 315 2.0 5.0 0.00 0.00 0.00 82 1016.4
20260906035038 64 309 2.0 5.0 0.00 0.00 0.00 81 1016.4
20260906035004 64 309 2.0 5.0 0.00 0.00 0.00 81 1016.4
20260906034538 64 318 3.0 5.0 0.00 0.00 0.00 81 1016.4
20260906034524 64 318 3.0 5.0 0.00 0.00 0.00 81 1016.4
20260906034038 64 323 3.0 4.0 0.00 0.00 0.00 81 1016.5
20260906034003 64 323 3.0 4.0 0.00 0.00 0.00 81 1016.5
20260906033538 64 325 2.0 7.0 0.00 0.00 0.00 81 1016.3
20260906033503 64 325 2.0 7.0 0.00 0.00 0.00 81 1016.3
20260906033038 64 331 2.0 7.0 0.00 0.00 0.00 80 1016.2
20260906033003 64 331 2.0 7.0 0.00 0.00 0.00 80 1016.2
20260906032538 64 341 2.0 4.0 0.00 0.00 0.00 80 1016.2
20260906032503 64 341 2.0 4.0 0.00 0.00 0.00 80 1016.2
20260906032038 64 347 1.0 4.0 0.00 0.00 0.00 80 1016.3
20260906032025 64 347 1.0 4.0 0.00 0.00 0.00 80 1016.3
20260906031538 65 350 1.0 4.0 0.00 0.00 0.00 80 1016.3
20260906031503 65 350 1.0 4.0 0.00 0.00 0.00 80 1016.3
20260906031038 65 352 1.0 4.0 0.00 0.00 0.00 79 1016.3
20260906031003 65 352 1.0 4.0 0.00 0.00 0.00 79 1016.3
20260906030538 65 358 2.0 4.0 0.00 0.00 0.00 79 1016.4
20260906030504 65 358 2.0 4.0 0.00 0.00 0.00 79 1016.4
20260906030038 65 6 1.0 4.0 0.00 0.00 0.00 79 1016.4
20260906030024 65 6 1.0 4.0 0.00 0.00 0.00 79 1016.4
20260906025538 65 14 1.0 4.0 0.00 0.00 0.00 78 1016.3
20260906025503 65 14 1.0 4.0 0.00 0.00 0.00 78 1016.3
20260906025038 65 22 1.0 4.0 0.00 0.00 0.00 78 1016.4
20260906025003 65 22 1.0 4.0 0.00 0.00 0.00 78 1016.4
20260906024538 66 32 1.0 5.0 0.00 0.00 0.00 77 1016.4
20260906024506 66 32 1.0 5.0 0.00 0.00 0.00 77 1016.4
20260906024038 66 25 1.0 5.0 0.00 0.00 0.00 77 1016.4
20260906024003 66 25 1.0 5.0 0.00 0.00 0.00 77 1016.4
20260906023537 66 1 1.0 4.0 0.00 0.00 0.00 77 1016.5
20260906023503 66 1 1.0 4.0 0.00 0.00 0.00 77 1016.5
20260906023037 66 358 1.0 4.0 0.00 0.00 0.00 77 1016.4
20260906023003 66 358 1.0 4.0 0.00 0.00 0.00 77 1016.4
20260906022537 66 350 1.0 4.0 0.00 0.00 0.00 76 1016.5
20260906022503 66 350 1.0 4.0 0.00 0.00 0.00 76 1016.5
20260906022037 66 342 1.0 4.0 0.00 0.00 0.00 76 1016.6
20260906022004 66 342 1.0 4.0 0.00 0.00 0.00 76 1016.6
20260906021537 66 342 1.0 5.0 0.00 0.00 0.00 76 1016.6
20260906021503 66 342 1.0 5.0 0.00 0.00 0.00 76 1016.6
20260906021037 66 343 1.0 5.0 0.00 0.00 0.00 76 1016.5
20260906021003 66 343 1.0 5.0 0.00 0.00 0.00 76 1016.5
20260906020537 66 342 0.0 5.0 0.00 0.00 0.00 76 1016.5
20260906020503 66 342 0.0 5.0 0.00 0.00 0.00 76 1016.5
20260906020037 67 338 0.0 2.0 0.00 0.00 0.00 75 1016.4
20260906020004 67 338 0.0 2.0 0.00 0.00 0.00 75 1016.4
20260906015537 67 337 0.0 3.0 0.00 0.00 0.00 75 1016.4
20260906015503 67 337 0.0 3.0 0.00 0.00 0.00 75 1016.4
20260906015037 67 337 0.0 3.0 0.00 0.00 0.00 74 1016.5
20260906015006 67 337 0.0 3.0 0.00 0.00 0.00 74 1016.5
20260906014537 67 338 0.0 4.0 0.00 0.00 0.00 74 1016.5
20260906014503 67 338 0.0 4.0 0.00 0.00 0.00 74 1016.5
20260906014037 68 338 1.0 4.0 0.00 0.00 0.00 74 1016.4
20260906014003 68 338 1.0 4.0 0.00 0.00 0.00 74 1016.4
20260906013537 68 339 2.0 6.0 0.00 0.00 0.00 74 1016.2
20260906013506 68 340 2.0 6.0 0.00 0.00 0.00 74 1016.2
20260906013037 68 6 2.0 6.0 0.00 0.00 0.00 73 1016.2
20260906013024 68 6 2.0 6.0 0.00 0.00 0.00 73 1016.2
20260906012537 68 35 1.0 6.0 0.00 0.00 0.00 73 1016.1
20260906012524 68 36 1.0 6.0 0.00 0.00 0.00 73 1016.1
20260906012037 68 2 0.0 5.0 0.00 0.00 0.00 72 1016.0
20260906012007 68 2 0.0 5.0 0.00 0.00 0.00 72 1016.0
20260906011537 69 353 1.0 5.0 0.00 0.00 0.00 72 1015.8
20260906011503 69 353 1.0 5.0 0.00 0.00 0.00 72 1015.8
20260906011036 69 354 1.0 6.0 0.00 0.00 0.00 72 1015.7
20260906011003 69 354 1.0 6.0 0.00 0.00 0.00 72 1015.7
20260906010536 69 28 2.0 6.0 0.00 0.00 0.00 71 1015.7
20260906010503 69 28 2.0 6.0 0.00 0.00 0.00 71 1015.7
20260906010036 69 43 1.0 7.0 0.00 0.00 0.00 71 1015.6
20260906010003 69 43 1.0 7.0 0.00 0.00 0.00 71 1015.6
20260906005536 70 356 1.0 7.0 0.00 0.00 0.00 71 1015.6
20260906005503 70 355 1.0 7.0 0.00 0.00 0.00 71 1015.6
20260906005036 70 338 1.0 5.0 0.00 0.00 0.00 70 1015.5
20260906005003 70 338 1.0 5.0 0.00 0.00 0.00 70 1015.5
20260906004536 70 11 1.0 5.0 0.00 0.00 0.00 70 1015.5
20260906004503 70 12 1.0 5.0 0.00 0.00 0.00 70 1015.5
20260906004006 70 50 1.0 3.0 0.00 0.00 0.00 69 1015.5
20260906004001 70 50 1.0 3.0 0.00 0.00 0.00 69 1015.5
20260906003506 71 64 1.0 3.0 0.00 0.00 0.00 68 1015.6
20260906003501 71 64 1.0 3.0 0.00 0.00 0.00 68 1015.6
20260906003006 71 74 1.0 3.0 0.00 0.00 0.00 67 1015.5
20260906003004 71 75 1.0 3.0 0.00 0.00 0.00 67 1015.5
20260906002506 71 80 1.0 6.0 0.00 0.00 0.00 67 1015.5
20260906002501 71 80 1.0 6.0 0.00 0.00 0.00 67 1015.5
20260906002006 71 94 1.0 6.0 0.00 0.00 0.00 66 1015.5
20260906002001 71 94 1.0 6.0 0.00 0.00 0.00 66 1015.5
20260906001522 72 107 1.0 4.0 0.00 0.00 0.00 65 1015.3
20260906001506 72 104 1.0 4.0 0.00 0.00 0.00 65 1015.5
20260906001006 72 94 2.0 4.0 0.00 0.00 0.00 65 1015.5
20260906001002 72 94 2.0 4.0 0.00 0.00 0.00 65 1015.5
20260906000506 72 68 3.0 10.0 0.00 0.00 0.00 64 1015.4
20260906000501 72 68 3.0 10.0 0.00 0.00 0.00 64 1015.4
20260906000022 72 62 2.0 10.0 0.00 0.00 0.00 62 1015.4
20260906000005 72 61 2.0 10.0 0.00 0.00 0.00 62 1015.4
20260905235505 73 78 2.0 6.0 0.00 0.00 0.00 64 1015.4
20260905235501 73 78 2.0 6.0 0.00 0.00 0.00 64 1015.4
20260905235005 73 92 2.0 6.0 0.00 0.00 0.00 64 1015.3
20260905235001 73 93 2.0 6.0 0.00 0.00 0.00 64 1015.3
20260905234505 73 82 1.0 6.0 0.00 0.00 0.00 64 1015.4
20260905234005 74 58 1.0 4.0 0.00 0.00 0.00 64 1015.4
20260905234001 74 58 1.0 4.0 0.00 0.00 0.00 64 1015.4
20260905233523 74 52 2.0 9.0 0.00 0.00 0.00 63 1015.3
20260905233505 74 54 2.0 9.0 0.00 0.00 0.00 63 1015.4
20260905233022 74 61 2.0 9.0 0.00 0.00 0.00 63 1015.4
20260905233005 74 70 2.0 7.0 0.00 0.00 0.00 63 1015.5
20260905232505 74 80 3.0 7.0 0.00 0.00 0.00 64 1015.4
20260905232501 74 80 3.0 7.0 0.00 0.00 0.00 64 1015.4
20260905232005 74 72 3.0 7.0 0.00 0.00 0.00 64 1015.5
20260905232002 74 72 3.0 7.0 0.00 0.00 0.00 64 1015.5
20260905231505 75 68 3.0 10.0 0.00 0.00 0.00 63 1015.3
20260905231501 75 68 3.0 10.0 0.00 0.00 0.00 63 1015.3
20260905231005 75 70 3.0 10.0 0.00 0.00 0.00 63 1015.3
20260905230505 75 76 3.0 9.0 0.00 0.00 0.00 63 1015.2
20260905230502 75 71 3.0 9.0 0.00 0.00 0.00 63 1015.2
20260905230005 76 78 3.0 9.0 0.00 0.00 0.00 63 1015.2
20260905230001 76 78 2.0 9.0 0.00 0.00 0.00 63 1015.2
20260905225505 76 83 2.0 4.0 0.00 0.00 0.00 63 1015.2
20260905225501 76 83 2.0 4.0 0.00 0.00 0.00 63 1015.2
20260905225005 76 85 2.0 7.0 0.00 0.00 0.00 63 1015.1
20260905225001 76 85 2.0 7.0 0.00 0.00 0.00 63 1015.1
20260905224505 76 77 3.0 7.0 0.00 0.00 0.00 62 1015.0
20260905224502 76 79 3.0 7.0 0.00 0.00 0.00 62 1015.0
20260905224005 76 69 3.0 7.0 0.00 0.00 0.00 62 1015.0
20260905224001 76 69 3.0 7.0 0.00 0.00 0.00 62 1015.0
20260905223522 76 73 3.0 7.0 0.00 0.00 0.00 62 1014.9
20260905223504 76 76 3.0 8.0 0.00 0.00 0.00 61 1014.9
20260905223004 77 77 3.0 8.0 0.00 0.00 0.00 61 1014.9
20260905223002 77 80 3.0 8.0 0.00 0.00 0.00 61 1014.9
20260905222504 77 72 3.0 8.0 0.00 0.00 0.00 61 1015.0
20260905222502 77 73 2.0 8.0 0.00 0.00 0.00 61 1015.0
20260905222004 77 64 2.0 8.0 0.00 0.00 0.00 60 1014.8
20260905222001 77 63 2.0 8.0 0.00 0.00 0.00 61 1015.0